Regional Weather Roundup
Issued by NWS Newport/Morehead, NC

Current Version | Previous Version | Text Only | Print | Product List | Glossary On
Versions: 1 2 3 4 5 6 7 8 9 10 11 12 13 14 15 16 17 18 19 20 21 22 23 24 25 26 27 28 29 30 31 32 33 34 35 36 37 38 39 40 41 42 43 44 45 46 47 48 49 50
000
ASUS42 KMHX 042113
RWRMHX
WEATHER ROUNDUP FOR EASTERN NORTH CAROLINA
NATIONAL WEATHER SERVICE NEWPORT/MOREHEAD CITY NC
500 PM EDT TUE AUG 04 2015

NOTE: "FAIR" INDICATES FEW OR NO CLOUDS BELOW 12,000 FEET
WITH NO SIGNIFICANT WEATHER AND/OR OBSTRUCTIONS TO VISIBILITY

NCZ015>017-031-032-045>047-102-103-042200-
NORTH COAST

CITY           SKY/WX    TMP DP  RH WIND       PRES   REMARKS
EDENTON          N/A     89  73  58 S15       29.95F
ELIZABETH CITY MOSUNNY   87  73  62 S13       29.96S
KITTY HAWK     MOCLDY    88  74  62 S8G17     29.96S
MANTEO         PTSUNNY   85  74  67 SW23      29.97F

$$

NCZ045>047-081-094-103-104-042200-
CENTRAL COAST

CITY           SKY/WX    TMP DP  RH WIND       PRES   REMARKS
FRISCO         CLOUDY    82  75  79 SW12      30.01F
SWANQUARTER      N/A     86 N/A N/A S13G23    29.94S

$$

NCZ095-097-098-100-101-042200-
SOUTHERN COAST

CITY           SKY/WX    TMP DP  RH WIND       PRES   REMARKS
BEAUFORT       CLOUDY    81  74  79 S14G22    29.98F
CEDAR ISLAND     N/A     86 N/A N/A S10G17    30.03S
JACKSONVILLE   CLOUDY    78  72  81 S10       29.94F THUNDER
PINEY ISLAND   MOCLDY   N/A N/A N/A SW18G24   29.98F
WILMINGTON     CLOUDY    82  75  79 S7        29.92S


$$

NCZ011>013-027>030-043-044-078>080-089-090>093-098-042200-
COASTAL PLAIN

CITY           SKY/WX    TMP DP  RH WIND       PRES   REMARKS
AHOSKIE        SUNNY    N/A N/A N/A S12       29.93S
CLINTON        SUNNY     87  74  65 SE3       29.94S
ELIZABETHTOWN  MOSUNNY   85  73  69 SE5       29.93S
GOLDSBORO      SUNNY     89  72  56 SE14G21   29.92S
GREENVILLE     MOSUNNY   90  73  58 S15       29.96F
HAVELOCK       CLOUDY    82  74  76 S8        29.98F
KENANSVILLE    PTSUNNY   83  71  65 E8        29.96S
KINSTON        PTSUNNY   88  72  58 S16       29.96F
NEW BERN       PTSUNNY   85  73  67 S9        29.97F
RICHLANDS      CLOUDY    82  70  65 SE8       29.95F
ROCKY MOUNT    MOSUNNY   94  71  47 S10       29.93F HX 101
WASHINGTON     MOSUNNY   86  72  61 S12G21    29.96S
WHITEVILLE     PTSUNNY   80  75  85 NE7       29.93R

$$

AMZ130-135-150-152-154-156-158-170-250-252-270-ANZ085-086-088-633-658-670-042200-
MARINE OBSERVATIONS

STATION/POSITION TIME  TEMP    WIND        PRES    WAVE   SWELL
                       AIR SEA DIR/SP/G            HT/PER HT/PER
                 (UTC) (F)     (DEG/KT/KT) (MB)    (FT/S) (FT/S)
CHESAPEAKE LIGHT 2100   81     200/ 21/ 22 1013.9
64 E VA BEACH    2050   81 81  200/ 16/ 19 1014.5    4/ 6   2/11
DUCK             2000   83 63  210/ 13/ 17 1014.2
2 E DUCK         2011      66                N/A     2/11   2/11
OREGON INLET     2000   82 82  200/ 15/ 18 1015.9
13E OREGON INLT  2100      81                N/A     3/ 5
HATTERAS CG      2000   82 79  210/ 10/ 13 1015.9
DIAMOND BUOY     2050   78 84  190/ 25/ 31 1016.4    5/ 6   2/11
CAPE LOOKOUT     2100   80     200/  8/ 11 1015.0
BEAUFORT LAB     2000   82 80  210/ 11/ 19 1014.9
30 SE NEW RVR IN NOT AVBL
27 SE WRIGHTSVLE 2000   77 82  220/ 19/ 25   N/A
5 SE WRIGHTSVLE  2008   80 82  190/ 17/ 23 1013.3
225 S CAPE HAT   2050   83 82  200/ 14/ 17 1018.5    5/ 7   3/ 7
41 SE CHARLESTON 2050   81 83  220/ 14/ 16 1014.2    5/ 6   3/ 6

$$


USA.gov is the U.S. government's official web portal to all federal, state and local government web resources and services.